Regional Weather Roundup
Issued by NWS Lake Charles, LA

Home | Current Version | Previous Version | Text Only | Print | Product List | Glossary On
Versions: 1 2 3 4 5 6 7 8 9 10 11 12 13 14 15 16 17 18 19 20 21 22 23 24 25 26 27
000
ASUS44 KLCH 061610
RWRLCH
REGIONAL WEATHER ROUNDUP
NATIONAL WEATHER SERVICE LAKE CHARLES LA
1000 AM CST TUE DEC 06 2016

Note: "fair" indicates few or no clouds below 12,000 feet with no
significant weather and/or obstructions to visibility.


ACROSS SOUTHEAST TEXAS

CITY           SKY/WX    TMP DP  RH WIND       PRES   REMARKS
BEAUMONT       SUNNY     59  53  80 CALM      29.94R
BEAUMONT CITY  FAIR      58  53  84 CALM      29.95R
ORANGE         PTSUNNY  N/A N/A N/A CALM      29.97R
JASPER         CLOUDY    54  52  92 CALM      29.97R
$$

ACROSS CENTRAL LOUISIANA

CITY           SKY/WX    TMP DP  RH WIND       PRES   REMARKS
LEESVILLE      CLOUDY    52  51  95 SW6       29.94R
FULLERTON      CLOUDY    53  51  93 CALM      29.93R
ALEXANDRIA INT CLOUDY    52  50  93 W7        29.94R
ESLER FIELD    CLOUDY    52  50  93 VRB5      29.96R
DERIDDER       CLOUDY    54  51  92 CALM      29.97R
OAKDALE        CLOUDY    54  50  89 CALM      29.96S
OPELOUSAS      CLOUDY    52  50  90 W6        29.97R
$$

ACROSS SOUTHWEST AND SOUTH CENTRAL LOUISIANA

CITY           SKY/WX    TMP DP  RH WIND       PRES   REMARKS
SULPHUR        PTSUNNY   56  52  85 CALM      29.96S
LAKE CHARLES   CLOUDY    55  51  86 CALM      29.96R
CHENNAULT INT  CLOUDY    61  52  72 CALM      29.96R
CAMERON PHI    MOSUNNY   57  54  88 CALM      29.95R
DEQUINCY       CLOUDY    53  50  92 CALM      29.95F
JENNINGS       CLOUDY    55  50  82 NW6       29.97R
LAFAYETTE      CLOUDY    56  52  86 W8        29.96R
NEW IBERIA     PTSUNNY   58  50  75 NW8       29.97R
ABBEVILLE      FAIR      57  54  88 NW10      29.96S
PATTERSON      CLOUDY   N/A N/A N/A NW8       29.97R
SALT POINT     NOT AVBL
$$

SELECTED SITES ACROSS THE REGION

CITY           SKY/WX    TMP DP  RH WIND       PRES   REMARKS
HOUSTON BUSH   MOSUNNY   59  52  77 W5        29.92R
HOUSTON HOBBY  SUNNY     62  53  72 SW13      29.92R
GALVESTON      SUNNY     65  57  75 SW7       29.94R
COLLEGE STAT   SUNNY     56  51  84 VRB3      29.90R
CONROE         MOSUNNY   56  51  84 SW6       29.92R
HUNTSVILLE     SUNNY     56  50  80 W5        29.91R
LUFKIN         CLOUDY    52  49  89 CALM      29.93R
SHREVEPORT     CLOUDY    52  50  93 W6        29.94R
MONROE         CLOUDY    52  47  83 NW8       29.95R
NATCHEZ MS     CLOUDY    52  46  82 W10       29.96R
BATON ROUGE    CLOUDY    54  51  90 W12       29.96R
N.O. INTL ARPT CLOUDY    57  53  86 NW10      29.95R
SLIDELL        CLOUDY    58  52  80 VRB3      29.93R
$$

MARINE REPORTS

STATION/POSITION TIME  SKY/WX   TEMP    WIND        PRES    VSBY
                                AIR SEA DIR/SP/G
                 (UTC)          (F)     (DEG/KT/KT) (MB)    (MI)
BUOY 30 S HIGH I 1550            63 67  250/  8/ 10 1013.9R
WVE H/P(F/S)=  2/ 6

SEA RIM ST PARK  1600            60     210/  6/  7 1014.5R
PORT ARTHUR      1548               58   90/  5/  6 1014.1R
SABINE PASS N    1548            60 59  270/  3/  5 1015.3R
TEXAS POINT      NOT AVBL
CALCASIEU PASS   1548            56 57   30/  2/  3   N/A
LK CHARLES BEACH 1548            53 56              1014.7R
MARSH ISLAND     1500            57                   N/A
FRESH WATER LOCK 1548            58 60  280/  8/ 11 1015.0R
AMERADA PASS     1548            58 61  280/  7/ 10 1014.4R
$$




USA.gov is the U.S. government's official web portal to all federal, state and local government web resources and services.